Disclaimer

Please do not use the information listed here in-flight or in-navigation, as they are not provided to us by the airports but are provided by volunteers, so they might be outdated.

Search


Regions


Airport information page

No radio frequency information is available.

Airport informations:
Latitude: 49° 58' 17.51" N
Longitude: 002° 41' 51.58" E
Elevation: 364 feet - 111 meters
Operating hours: NO OPERATING HOURS LISTED
Operating agency: Civil government, landing fees and diplomatic clearance may be required
Timezone: UTC+1(+2DT) - Last Sunday in March to last Sunday in October
Fuel: N/A

Runway information:
09/27 - 3838 x 82 feet< - >1170 x 25 meters

Recent METARs:
LFAQ 222000Z AUTO 18011KT 1000 0800 R27/1300U BCFG VV/// 00/00 Q0999
LFAQ 222030Z AUTO 18011KT 0800 0700 R27/1200D FG VV/// 00/00 Q0998
LFAQ 222100Z AUTO 17011KT 0750 0600 R27/0750D FG VV/// 00/00 Q0998

Airport on the map: